This is the latest recevied weather packets stored in our database for station/object SP1BMW-13. If no packets are shown the sender has not sent any weather packets the latest 10 day(s).
| Time | Temp. | Humidity | Pressure | Rain* | Wind** | Luminosity | Snow |
|---|---|---|---|---|---|---|---|
| 1788074196 | 22.78° C | 61% | 1008.2 hPa | 0 mm | 0.45 m/s, 245° | 234 W/m² | - |
| 1788074137 | 22.78° C | 61% | 1008.3 hPa | 0 mm | 0 m/s | 158 W/m² | - |
| 1788074079 | 22.78° C | 60% | 1008.3 hPa | 0 mm | 1.34 m/s, 236° | 134 W/m² | - |
| 1788074016 | 22.78° C | 60% | 1008.2 hPa | 0 mm | 0.89 m/s, 339° | 137 W/m² | - |
| 1788073957 | 22.78° C | 59% | 1008.2 hPa | 0 mm | 3.58 m/s, 147° | 151 W/m² | - |
| 1788073897 | 22.78° C | 61% | 1008.3 hPa | 0 mm | 0.45 m/s, 62° | 171 W/m² | - |
| 1788073836 | 22.78° C | 60% | 1008.1 hPa | 0 mm | 0 m/s | 179 W/m² | - |
| 1788073779 | 22.78° C | 60% | 1008 hPa | 0 mm | 0.45 m/s, 237° | 355 W/m² | - |
| 1788073716 | 22.78° C | 63% | 1008.1 hPa | 0 mm | 0 m/s | 202 W/m² | - |
| 1788073657 | 22.78° C | 62% | 1008.2 hPa | 0 mm | 0 m/s | 239 W/m² | - |
| 1788073597 | 22.22° C | 61% | 1008.1 hPa | 0 mm | 0.45 m/s, 32° | 187 W/m² | - |
| 1788073542 | 22.22° C | 62% | 1008.1 hPa | 0 mm | 0.45 m/s, 64° | 338 W/m² | - |
| 1788073476 | 21.67° C | 63% | 1008.1 hPa | 0 mm | 0.45 m/s, 28° | 321 W/m² | - |
| 1788073416 | 21.67° C | 63% | 1008.2 hPa | 0 mm | 0.89 m/s, 226° | 300 W/m² | - |
| 1788073358 | 21.67° C | 66% | 1008 hPa | 0 mm | 0 m/s | 275 W/m² | - |
| 1788073296 | 21.11° C | 67% | 1008.1 hPa | 0 mm | 0 m/s | 259 W/m² | - |
| 1788073237 | 21.11° C | 66% | 1008.1 hPa | 0 mm | 0 m/s | 247 W/m² | - |
| 1788073177 | 21.11° C | 67% | 1008 hPa | 0 mm | 0 m/s | 237 W/m² | - |
| 1788073116 | 21.11° C | 66% | 1008.1 hPa | 0 mm | 0.45 m/s, 2° | 123 W/m² | - |
| 1788073056 | 21.11° C | 66% | 1008.2 hPa | 0 mm | 0.45 m/s, 275° | 110 W/m² | - |
| 1788072997 | 21.11° C | 67% | 1008.2 hPa | 0 mm | 0 m/s | 87 W/m² | - |
| 1788072937 | 21.11° C | 67% | 1008.1 hPa | 0 mm | 0.45 m/s, 313° | 85 W/m² | - |
| 1788072877 | 21.11° C | 67% | 1008.2 hPa | 0 mm | 0.89 m/s, 30° | 80 W/m² | - |
| 1788072817 | 20.56° C | 66% | 1008.2 hPa | 0 mm | 0.89 m/s, 130° | 133 W/m² | - |
| 1788072759 | 20.56° C | 67% | 1008.1 hPa | 0 mm | 0 m/s | 222 W/m² | - |
* Rain latest hour (hover to see other rain measurements)
** Current wind speed in m/s (hover to see current wind gust speed)